owner,sensor,date,latitude,longitude,vertical_datum,mass_concentration_of_oxygen_in_sea_water,qcFlag 
DISL,ioos:station:DISL:KATA:1,2014-02-01T00:00:00Z,30.2583,-88.2131,4.098,9.52,1111122 
DISL,ioos:station:DISL:KATA:1,2014-02-01T00:30:00Z,30.2583,-88.2131,4.133,9.53,1111122 
DISL,ioos:station:DISL:KATA:1,2014-02-01T01:00:00Z,30.2583,-88.2131,4.163,9.61,1111122 
DISL,ioos:station:DISL:KATA:1,2014-02-01T01:30:00Z,30.2583,-88.2131,4.201,9.59,1111122 
DISL,ioos:station:DISL:KATA:1,2014-02-01T02:00:00Z,30.2583,-88.2131,4.228,9.63,1111122 
DISL,ioos:station:DISL:KATA:1,2014-02-01T02:30:00Z,30.2583,-88.2131,4.26,9.59,1111122 
DISL,ioos:station:DISL:KATA:1,2014-02-01T03:00:00Z,30.2583,-88.2131,4.279,9.55,1111122 
DISL,ioos:station:DISL:KATA:1,2014-02-01T03:30:00Z,30.2583,-88.2131,4.304,9.5,1111122 
DISL,ioos:station:DISL:KATA:1,2014-02-01T04:00:00Z,30.2583,-88.2131,4.304,9.39,1111122 
DISL,ioos:station:DISL:KATA:1,2014-02-01T04:30:00Z,30.2583,-88.2131,4.298,9.38,1111122 
DISL,ioos:station:DISL:KATA:1,2014-02-01T05:00:00Z,30.2583,-88.2131,4.286,9.2,1111122 
DISL,ioos:station:DISL:KATA:1,2014-02-01T05:30:00Z,30.2583,-88.2131,4.254,9.04,1111122 
DISL,ioos:station:DISL:KATA:1,2014-02-01T06:00:00Z,30.2583,-88.2131,4.229,8.55,1111122 
DISL,ioos:station:DISL:KATA:1,2014-02-01T06:30:00Z,30.2583,-88.2131,4.213,8.49,1111122 
DISL,ioos:station:DISL:KATA:1,2014-02-01T07:00:00Z,30.2583,-88.2131,4.197,8.69,1111122 
DISL,ioos:station:DISL:KATA:1,2014-02-01T07:30:00Z,30.2583,-88.2131,4.188,8.65,1111122 
DISL,ioos:station:DISL:KATA:1,2014-02-01T08:00:00Z,30.2583,-88.2131,4.165,8.6,1111122 
DISL,ioos:station:DISL:KATA:1,2014-02-01T08:30:00Z,30.2583,-88.2131,4.144,8.91,1111122 
DISL,ioos:station:DISL:KATA:1,2014-02-01T09:00:00Z,30.2583,-88.2131,4.101,8.76,1111122 
DISL,ioos:station:DISL:KATA:1,2014-02-01T09:30:00Z,30.2583,-88.2131,4.052,9.17,1111122 
DISL,ioos:station:DISL:KATA:1,2014-02-01T10:00:00Z,30.2583,-88.2131,4.0,8.86,1111122 
DISL,ioos:station:DISL:KATA:1,2014-02-01T10:30:00Z,30.2583,-88.2131,3.947,9.0,1111122 
DISL,ioos:station:DISL:KATA:1,2014-02-01T11:00:00Z,30.2583,-88.2131,3.89,9.86,1111122 
DISL,ioos:station:DISL:KATA:1,2014-02-01T11:30:00Z,30.2583,-88.2131,3.844,9.41,1111122 
DISL,ioos:station:DISL:KATA:1,2014-02-01T12:00:00Z,30.2583,-88.2131,3.808,8.85,1111122 
DISL,ioos:station:DISL:KATA:1,2014-02-01T12:30:00Z,30.2583,-88.2131,3.792,8.85,1111122 
DISL,ioos:station:DISL:KATA:1,2014-02-01T13:00:00Z,30.2583,-88.2131,3.789,9.16,1111122 
DISL,ioos:station:DISL:KATA:1,2014-02-01T13:30:00Z,30.2583,-88.2131,3.802,9.2,1111122 
DISL,ioos:station:DISL:KATA:1,2014-02-01T14:00:00Z,30.2583,-88.2131,3.813,9.19,1111122 
DISL,ioos:station:DISL:KATA:1,2014-02-01T14:30:00Z,30.2583,-88.2131,3.834,9.11,1111122 
DISL,ioos:station:DISL:KATA:1,2014-02-01T15:00:00Z,30.2583,-88.2131,3.847,9.12,1111122 
DISL,ioos:station:DISL:KATA:1,2014-02-01T15:30:00Z,30.2583,-88.2131,3.859,9.03,1111122 
DISL,ioos:station:DISL:KATA:1,2014-02-01T16:00:00Z,30.2583,-88.2131,3.873,8.99,1111122 
DISL,ioos:station:DISL:KATA:1,2014-02-01T16:30:00Z,30.2583,-88.2131,3.88,9.04,1111122 
DISL,ioos:station:DISL:KATA:1,2014-02-01T17:00:00Z,30.2583,-88.2131,3.892,9.06,1111122 
DISL,ioos:station:DISL:KATA:1,2014-02-01T17:30:00Z,30.2583,-88.2131,3.912,9.13,1111122 
DISL,ioos:station:DISL:KATA:1,2014-02-01T18:00:00Z,30.2583,-88.2131,3.916,9.22,1111122 
DISL,ioos:station:DISL:KATA:1,2014-02-01T18:30:00Z,30.2583,-88.2131,3.927,9.33,1111122 
DISL,ioos:station:DISL:KATA:1,2014-02-01T19:00:00Z,30.2583,-88.2131,3.946,9.47,1111122 
DISL,ioos:station:DISL:KATA:1,2014-02-01T19:30:00Z,30.2583,-88.2131,3.962,9.47,1111122 
DISL,ioos:station:DISL:KATA:1,2014-02-01T20:00:00Z,30.2583,-88.2131,3.975,9.6,1111122 
DISL,ioos:station:DISL:KATA:1,2014-02-01T20:30:00Z,30.2583,-88.2131,3.989,9.69,1111122 
DISL,ioos:station:DISL:KATA:1,2014-02-01T21:00:00Z,30.2583,-88.2131,4.0,9.78,1111122 
DISL,ioos:station:DISL:KATA:1,2014-02-01T21:30:00Z,30.2583,-88.2131,4.008,9.82,1111122 
DISL,ioos:station:DISL:KATA:1,2014-02-01T22:00:00Z,30.2583,-88.2131,4.01,9.81,1111122 
DISL,ioos:station:DISL:KATA:1,2014-02-01T22:30:00Z,30.2583,-88.2131,4.01,9.86,1111122 
DISL,ioos:station:DISL:KATA:1,2014-02-01T23:00:00Z,30.2583,-88.2131,4.007,9.92,1111122 
DISL,ioos:station:DISL:KATA:1,2014-02-01T23:30:00Z,30.2583,-88.2131,4.018,10.0,1111122 
DISL,ioos:station:DISL:KATA:1,2014-02-02T00:00:00Z,30.2583,-88.2131,4.034,10.06,1111122 
DISL,ioos:station:DISL:KATA:1,2014-02-02T00:30:00Z,30.2583,-88.2131,4.057,10.07,1111122 
DISL,ioos:station:DISL:KATA:1,2014-02-02T01:00:00Z,30.2583,-88.2131,4.085,10.1,1111122 
DISL,ioos:station:DISL:KATA:1,2014-02-02T01:30:00Z,30.2583,-88.2131,4.113,10.1,1111122 
DISL,ioos:station:DISL:KATA:1,2014-02-02T02:00:00Z,30.2583,-88.2131,4.143,10.1,1111122 
DISL,ioos:station:DISL:KATA:1,2014-02-02T02:30:00Z,30.2583,-88.2131,4.178,10.08,1111122 
DISL,ioos:station:DISL:KATA:1,2014-02-02T03:00:00Z,30.2583,-88.2131,4.21,10.07,1111122 
DISL,ioos:station:DISL:KATA:1,2014-02-02T03:30:00Z,30.2583,-88.2131,4.221,10.07,1111122 
DISL,ioos:station:DISL:KATA:1,2014-02-02T04:00:00Z,30.2583,-88.2131,4.233,10.07,1111122 
DISL,ioos:station:DISL:KATA:1,2014-02-02T04:30:00Z,30.2583,-88.2131,4.238,10.1,1111122 
DISL,ioos:station:DISL:KATA:1,2014-02-02T05:00:00Z,30.2583,-88.2131,4.241,10.04,1111122 
DISL,ioos:station:DISL:KATA:1,2014-02-02T05:30:00Z,30.2583,-88.2131,4.241,9.99,1111122 
DISL,ioos:station:DISL:KATA:1,2014-02-02T06:00:00Z,30.2583,-88.2131,4.235,9.95,1111122 
DISL,ioos:station:DISL:KATA:1,2014-02-02T06:30:00Z,30.2583,-88.2131,4.226,10.02,1111122 
DISL,ioos:station:DISL:KATA:1,2014-02-02T07:00:00Z,30.2583,-88.2131,4.234,9.92,1111122 
DISL,ioos:station:DISL:KATA:1,2014-02-02T07:30:00Z,30.2583,-88.2131,4.241,9.87,1111122 
DISL,ioos:station:DISL:KATA:1,2014-02-02T08:00:00Z,30.2583,-88.2131,4.235,9.73,1111122 
DISL,ioos:station:DISL:KATA:1,2014-02-02T08:30:00Z,30.2583,-88.2131,4.215,9.61,1111122 
DISL,ioos:station:DISL:KATA:1,2014-02-02T09:00:00Z,30.2583,-88.2131,4.183,8.94,1111122 
DISL,ioos:station:DISL:KATA:1,2014-02-02T09:30:00Z,30.2583,-88.2131,4.142,9.7,1111122 
DISL,ioos:station:DISL:KATA:1,2014-02-02T10:00:00Z,30.2583,-88.2131,4.101,9.37,1111122 
DISL,ioos:station:DISL:KATA:1,2014-02-02T10:30:00Z,30.2583,-88.2131,4.056,9.66,1111122 
DISL,ioos:station:DISL:KATA:1,2014-02-02T11:00:00Z,30.2583,-88.2131,4.01,9.72,1111122 
DISL,ioos:station:DISL:KATA:1,2014-02-02T11:30:00Z,30.2583,-88.2131,3.967,9.73,1111122 
DISL,ioos:station:DISL:KATA:1,2014-02-02T12:00:00Z,30.2583,-88.2131,3.932,9.76,1111122 
DISL,ioos:station:DISL:KATA:1,2014-02-02T12:30:00Z,30.2583,-88.2131,3.905,9.77,1111122 
DISL,ioos:station:DISL:KATA:1,2014-02-02T13:00:00Z,30.2583,-88.2131,3.892,9.63,1111122 
DISL,ioos:station:DISL:KATA:1,2014-02-02T13:30:00Z,30.2583,-88.2131,3.892,9.78,1111122 
DISL,ioos:station:DISL:KATA:1,2014-02-02T14:00:00Z,30.2583,-88.2131,3.9,9.74,1111122 
DISL,ioos:station:DISL:KATA:1,2014-02-02T14:30:00Z,30.2583,-88.2131,3.911,9.74,1111122 
DISL,ioos:station:DISL:KATA:1,2014-02-02T15:00:00Z,30.2583,-88.2131,3.946,9.67,1111122 
DISL,ioos:station:DISL:KATA:1,2014-02-02T15:30:00Z,30.2583,-88.2131,3.97,9.71,1111122 
DISL,ioos:station:DISL:KATA:1,2014-02-02T16:00:00Z,30.2583,-88.2131,3.997,9.65,1111122 
DISL,ioos:station:DISL:KATA:1,2014-02-02T16:30:00Z,30.2583,-88.2131,4.013,9.7,1111122 
DISL,ioos:station:DISL:KATA:1,2014-02-02T17:00:00Z,30.2583,-88.2131,4.019,9.72,1111122 
DISL,ioos:station:DISL:KATA:1,2014-02-02T17:30:00Z,30.2583,-88.2131,4.03,9.73,1111122 
DISL,ioos:station:DISL:KATA:1,2014-02-02T18:00:00Z,30.2583,-88.2131,4.031,9.77,1111122 
DISL,ioos:station:DISL:KATA:1,2014-02-02T18:30:00Z,30.2583,-88.2131,4.044,9.65,1111122 
DISL,ioos:station:DISL:KATA:1,2014-02-02T19:00:00Z,30.2583,-88.2131,4.054,9.62,1111122 
DISL,ioos:station:DISL:KATA:1,2014-02-02T19:30:00Z,30.2583,-88.2131,4.07,9.64,1111122 
DISL,ioos:station:DISL:KATA:1,2014-02-02T20:00:00Z,30.2583,-88.2131,4.093,9.59,1111122 
DISL,ioos:station:DISL:KATA:1,2014-02-02T20:30:00Z,30.2583,-88.2131,4.107,9.77,1111122 
DISL,ioos:station:DISL:KATA:1,2014-02-02T21:00:00Z,30.2583,-88.2131,4.116,9.77,1111122 
DISL,ioos:station:DISL:KATA:1,2014-02-02T21:30:00Z,30.2583,-88.2131,4.117,9.82,1111122 
DISL,ioos:station:DISL:KATA:1,2014-02-02T22:00:00Z,30.2583,-88.2131,4.128,9.84,1111122 
DISL,ioos:station:DISL:KATA:1,2014-02-02T22:30:00Z,30.2583,-88.2131,4.126,9.88,1111122 
DISL,ioos:station:DISL:KATA:1,2014-02-02T23:00:00Z,30.2583,-88.2131,4.121,9.91,1111122 
DISL,ioos:station:DISL:KATA:1,2014-02-02T23:30:00Z,30.2583,-88.2131,4.117,9.81,1111122 
DISL,ioos:station:DISL:KATA:1,2014-02-03T00:00:00Z,30.2583,-88.2131,4.099,9.74,1111122 
DISL,ioos:station:DISL:KATA:1,2014-02-03T00:30:00Z,30.2583,-88.2131,4.088,9.72,1111122 
DISL,ioos:station:DISL:KATA:1,2014-02-03T01:00:00Z,30.2583,-88.2131,4.086,9.48,1111122 
DISL,ioos:station:DISL:KATA:1,2014-02-03T01:30:00Z,30.2583,-88.2131,4.1,9.72,1111122 
DISL,ioos:station:DISL:KATA:1,2014-02-03T02:00:00Z,30.2583,-88.2131,4.13,9.8,1111122 
DISL,ioos:station:DISL:KATA:1,2014-02-03T02:30:00Z,30.2583,-88.2131,4.167,9.66,1111122 
DISL,ioos:station:DISL:KATA:1,2014-02-03T03:00:00Z,30.2583,-88.2131,4.2,9.69,1111122 
DISL,ioos:station:DISL:KATA:1,2014-02-03T03:30:00Z,30.2583,-88.2131,4.233,9.83,1111122 
DISL,ioos:station:DISL:KATA:1,2014-02-03T04:00:00Z,30.2583,-88.2131,4.253,9.76,1111122 
DISL,ioos:station:DISL:KATA:1,2014-02-03T04:30:00Z,30.2583,-88.2131,4.27,9.73,1111122 
DISL,ioos:station:DISL:KATA:1,2014-02-03T05:00:00Z,30.2583,-88.2131,4.27,9.68,1111122 
DISL,ioos:station:DISL:KATA:1,2014-02-03T05:30:00Z,30.2583,-88.2131,4.259,9.6,1111122 
DISL,ioos:station:DISL:KATA:1,2014-02-03T06:00:00Z,30.2583,-88.2131,4.236,9.65,1111122 
DISL,ioos:station:DISL:KATA:1,2014-02-03T06:30:00Z,30.2583,-88.2131,4.212,9.64,1111122 
DISL,ioos:station:DISL:KATA:1,2014-02-03T07:00:00Z,30.2583,-88.2131,4.2,9.67,1111122 
DISL,ioos:station:DISL:KATA:1,2014-02-03T07:30:00Z,30.2583,-88.2131,4.196,9.55,1111122 
DISL,ioos:station:DISL:KATA:1,2014-02-03T08:00:00Z,30.2583,-88.2131,4.201,9.35,1111122 
DISL,ioos:station:DISL:KATA:1,2014-02-03T08:30:00Z,30.2583,-88.2131,4.204,9.35,1111122 
DISL,ioos:station:DISL:KATA:1,2014-02-03T09:00:00Z,30.2583,-88.2131,4.22,9.32,1111122 
DISL,ioos:station:DISL:KATA:1,2014-02-03T09:30:00Z,30.2583,-88.2131,4.211,9.18,1111122 
DISL,ioos:station:DISL:KATA:1,2014-02-03T10:00:00Z,30.2583,-88.2131,4.205,9.12,1111122 
DISL,ioos:station:DISL:KATA:1,2014-02-03T10:30:00Z,30.2583,-88.2131,4.183,9.46,1111122 
DISL,ioos:station:DISL:KATA:1,2014-02-03T11:00:00Z,30.2583,-88.2131,4.142,9.36,1111122 
DISL,ioos:station:DISL:KATA:1,2014-02-03T11:30:00Z,30.2583,-88.2131,4.097,9.37,1111122 
DISL,ioos:station:DISL:KATA:1,2014-02-03T12:00:00Z,30.2583,-88.2131,4.06,9.45,1111122 
DISL,ioos:station:DISL:KATA:1,2014-02-03T12:30:00Z,30.2583,-88.2131,4.021,9.58,1111122 
DISL,ioos:station:DISL:KATA:1,2014-02-03T13:00:00Z,30.2583,-88.2131,3.986,9.67,1111122 
DISL,ioos:station:DISL:KATA:1,2014-02-03T13:30:00Z,30.2583,-88.2131,3.977,9.78,1111122 
DISL,ioos:station:DISL:KATA:1,2014-02-03T14:00:00Z,30.2583,-88.2131,3.948,9.84,1111122 
DISL,ioos:station:DISL:KATA:1,2014-02-03T14:30:00Z,30.2583,-88.2131,3.933,9.73,1111122 
DISL,ioos:station:DISL:KATA:1,2014-02-03T15:00:00Z,30.2583,-88.2131,3.93,9.71,1111122 
DISL,ioos:station:DISL:KATA:1,2014-02-03T15:30:00Z,30.2583,-88.2131,3.917,9.73,1111122 
DISL,ioos:station:DISL:KATA:1,2014-02-03T16:00:00Z,30.2583,-88.2131,3.891,9.79,1111122 
DISL,ioos:station:DISL:KATA:1,2014-02-03T16:30:00Z,30.2583,-88.2131,3.902,9.76,1111122 
DISL,ioos:station:DISL:KATA:1,2014-02-03T17:00:00Z,30.2583,-88.2131,3.911,9.46,1111122 
DISL,ioos:station:DISL:KATA:1,2014-02-03T17:30:00Z,30.2583,-88.2131,3.933,9.73,1111122 
DISL,ioos:station:DISL:KATA:1,2014-02-03T18:00:00Z,30.2583,-88.2131,3.97,9.56,1111122 
DISL,ioos:station:DISL:KATA:1,2014-02-03T18:30:00Z,30.2583,-88.2131,3.993,9.55,1111122 
DISL,ioos:station:DISL:KATA:1,2014-02-03T19:00:00Z,30.2583,-88.2131,4.003,9.5,1111122 
DISL,ioos:station:DISL:KATA:1,2014-02-03T19:30:00Z,30.2583,-88.2131,4.02,9.44,1111122 
DISL,ioos:station:DISL:KATA:1,2014-02-03T20:00:00Z,30.2583,-88.2131,4.03,9.45,1111122 
DISL,ioos:station:DISL:KATA:1,2014-02-03T20:30:00Z,30.2583,-88.2131,4.041,9.47,1111122 
DISL,ioos:station:DISL:KATA:1,2014-02-03T21:00:00Z,30.2583,-88.2131,4.053,9.33,1111122 
DISL,ioos:station:DISL:KATA:1,2014-02-03T21:30:00Z,30.2583,-88.2131,4.048,9.36,1111122 
DISL,ioos:station:DISL:KATA:1,2014-02-03T22:00:00Z,30.2583,-88.2131,4.034,9.32,1111122 
DISL,ioos:station:DISL:KATA:1,2014-02-03T22:30:00Z,30.2583,-88.2131,4.012,9.53,1111122 
DISL,ioos:station:DISL:KATA:1,2014-02-03T23:00:00Z,30.2583,-88.2131,3.984,9.4,1111122 
DISL,ioos:station:DISL:KATA:1,2014-02-03T23:30:00Z,30.2583,-88.2131,3.952,9.21,1111122 
DISL,ioos:station:DISL:KATA:1,2014-02-04T00:00:00Z,30.2583,-88.2131,3.937,9.25,1111122 
DISL,ioos:station:DISL:KATA:1,2014-02-04T00:30:00Z,30.2583,-88.2131,3.92,9.05,1111122 
DISL,ioos:station:DISL:KATA:1,2014-02-04T01:00:00Z,30.2583,-88.2131,3.904,8.97,1111122 
DISL,ioos:station:DISL:KATA:1,2014-02-04T01:30:00Z,30.2583,-88.2131,3.899,9.08,1111122 
DISL,ioos:station:DISL:KATA:1,2014-02-04T02:00:00Z,30.2583,-88.2131,3.913,8.95,1111122 
DISL,ioos:station:DISL:KATA:1,2014-02-04T02:30:00Z,30.2583,-88.2131,3.916,9.0,1111122 
DISL,ioos:station:DISL:KATA:1,2014-02-04T03:00:00Z,30.2583,-88.2131,3.93,8.92,1111122 
DISL,ioos:station:DISL:KATA:1,2014-02-04T03:30:00Z,30.2583,-88.2131,3.951,8.86,1111122 
DISL,ioos:station:DISL:KATA:1,2014-02-04T04:00:00Z,30.2583,-88.2131,3.975,8.83,1111122 
DISL,ioos:station:DISL:KATA:1,2014-02-04T04:30:00Z,30.2583,-88.2131,3.996,8.83,1111122 
DISL,ioos:station:DISL:KATA:1,2014-02-04T05:00:00Z,30.2583,-88.2131,4.014,8.88,1111122 
DISL,ioos:station:DISL:KATA:1,2014-02-04T05:30:00Z,30.2583,-88.2131,4.011,8.83,1111122 
DISL,ioos:station:DISL:KATA:1,2014-02-04T06:00:00Z,30.2583,-88.2131,4.008,8.79,1111122 
DISL,ioos:station:DISL:KATA:1,2014-02-04T06:30:00Z,30.2583,-88.2131,4.006,8.89,1111122 
DISL,ioos:station:DISL:KATA:1,2014-02-04T07:00:00Z,30.2583,-88.2131,4.014,8.81,1111122 
DISL,ioos:station:DISL:KATA:1,2014-02-04T07:30:00Z,30.2583,-88.2131,4.026,8.84,1111122 
DISL,ioos:station:DISL:KATA:1,2014-02-04T08:00:00Z,30.2583,-88.2131,4.048,8.51,1111122 
DISL,ioos:station:DISL:KATA:1,2014-02-04T08:30:00Z,30.2583,-88.2131,4.058,8.78,1111122 
DISL,ioos:station:DISL:KATA:1,2014-02-04T09:00:00Z,30.2583,-88.2131,4.063,8.75,1111122 
DISL,ioos:station:DISL:KATA:1,2014-02-04T09:30:00Z,30.2583,-88.2131,4.075,8.74,1111122 
DISL,ioos:station:DISL:KATA:1,2014-02-04T10:00:00Z,30.2583,-88.2131,4.095,8.63,1111122 
DISL,ioos:station:DISL:KATA:1,2014-02-04T10:30:00Z,30.2583,-88.2131,4.098,8.69,1111122 
DISL,ioos:station:DISL:KATA:1,2014-02-04T11:00:00Z,30.2583,-88.2131,4.089,8.27,1111122 
DISL,ioos:station:DISL:KATA:1,2014-02-04T11:30:00Z,30.2583,-88.2131,4.08,8.34,1111122 
DISL,ioos:station:DISL:KATA:1,2014-02-04T12:00:00Z,30.2583,-88.2131,4.072,8.15,1111122 
DISL,ioos:station:DISL:KATA:1,2014-02-04T12:30:00Z,30.2583,-88.2131,4.07,8.39,1111122 
DISL,ioos:station:DISL:KATA:1,2014-02-04T13:00:00Z,30.2583,-88.2131,4.078,8.44,1111122 
DISL,ioos:station:DISL:KATA:1,2014-02-04T13:30:00Z,30.2583,-88.2131,4.09,8.09,1111122 
DISL,ioos:station:DISL:KATA:1,2014-02-04T14:00:00Z,30.2583,-88.2131,4.111,8.17,1111122 
DISL,ioos:station:DISL:KATA:1,2014-02-04T14:30:00Z,30.2583,-88.2131,4.131,7.88,1111122 
DISL,ioos:station:DISL:KATA:1,2014-02-04T15:00:00Z,30.2583,-88.2131,4.147,8.53,1111122 
DISL,ioos:station:DISL:KATA:1,2014-02-04T15:30:00Z,30.2583,-88.2131,4.172,8.32,1111122 
DISL,ioos:station:DISL:KATA:1,2014-02-04T16:00:00Z,30.2583,-88.2131,4.193,8.57,1111122 
DISL,ioos:station:DISL:KATA:1,2014-02-04T16:30:00Z,30.2583,-88.2131,4.22,8.33,1111122 
DISL,ioos:station:DISL:KATA:1,2014-02-04T17:00:00Z,30.2583,-88.2131,4.24,8.59,1111122 
DISL,ioos:station:DISL:KATA:1,2014-02-04T17:30:00Z,30.2583,-88.2131,4.247,8.4,1111122 
DISL,ioos:station:DISL:KATA:1,2014-02-04T18:00:00Z,30.2583,-88.2131,4.246,8.57,1111122 
DISL,ioos:station:DISL:KATA:1,2014-02-04T18:30:00Z,30.2583,-88.2131,4.239,8.51,1111122 
DISL,ioos:station:DISL:KATA:1,2014-02-04T19:00:00Z,30.2583,-88.2131,4.231,8.25,1111122 
DISL,ioos:station:DISL:KATA:1,2014-02-04T19:30:00Z,30.2583,-88.2131,4.231,7.64,1111122 
DISL,ioos:station:DISL:KATA:1,2014-02-04T20:00:00Z,30.2583,-88.2131,4.219,7.56,1111122 
DISL,ioos:station:DISL:KATA:1,2014-02-04T20:30:00Z,30.2583,-88.2131,4.217,7.36,1111122 
DISL,ioos:station:DISL:KATA:1,2014-02-04T21:00:00Z,30.2583,-88.2131,4.226,6.92,1111122 
DISL,ioos:station:DISL:KATA:1,2014-02-04T21:30:00Z,30.2583,-88.2131,4.248,7.08,1111122 
DISL,ioos:station:DISL:KATA:1,2014-02-04T22:00:00Z,30.2583,-88.2131,4.258,7.1,1111122 
DISL,ioos:station:DISL:KATA:1,2014-02-04T22:30:00Z,30.2583,-88.2131,4.25,6.81,1111122 
DISL,ioos:station:DISL:KATA:1,2014-02-04T23:00:00Z,30.2583,-88.2131,4.235,7.52,1111122 
DISL,ioos:station:DISL:KATA:1,2014-02-04T23:30:00Z,30.2583,-88.2131,4.206,7.64,1111122 
DISL,ioos:station:DISL:KATA:1,2014-02-05T00:00:00Z,30.2583,-88.2131,4.184,7.95,1111122 
DISL,ioos:station:DISL:KATA:1,2014-02-05T00:30:00Z,30.2583,-88.2131,4.149,8.75,1111122 
DISL,ioos:station:DISL:KATA:1,2014-02-05T01:00:00Z,30.2583,-88.2131,4.113,8.25,1111122 
DISL,ioos:station:DISL:KATA:1,2014-02-05T01:30:00Z,30.2583,-88.2131,4.078,7.4,1111122 
DISL,ioos:station:DISL:KATA:1,2014-02-05T02:00:00Z,30.2583,-88.2131,4.048,6.59,1111122 
DISL,ioos:station:DISL:KATA:1,2014-02-05T02:30:00Z,30.2583,-88.2131,4.029,8.33,1111122 
DISL,ioos:station:DISL:KATA:1,2014-02-05T03:00:00Z,30.2583,-88.2131,4.022,8.71,1111122 
DISL,ioos:station:DISL:KATA:1,2014-02-05T03:30:00Z,30.2583,-88.2131,4.04,8.8,1111122 
DISL,ioos:station:DISL:KATA:1,2014-02-05T04:00:00Z,30.2583,-88.2131,4.036,8.76,1111122 
DISL,ioos:station:DISL:KATA:1,2014-02-05T04:30:00Z,30.2583,-88.2131,4.07,8.85,1111122 
DISL,ioos:station:DISL:KATA:1,2014-02-05T05:00:00Z,30.2583,-88.2131,4.1,8.81,1111122 
DISL,ioos:station:DISL:KATA:1,2014-02-05T05:30:00Z,30.2583,-88.2131,4.103,8.77,1111122 
DISL,ioos:station:DISL:KATA:1,2014-02-05T06:00:00Z,30.2583,-88.2131,4.109,8.78,1111122 
DISL,ioos:station:DISL:KATA:1,2014-02-05T06:30:00Z,30.2583,-88.2131,4.084,8.79,1111122 
DISL,ioos:station:DISL:KATA:1,2014-02-05T07:00:00Z,30.2583,-88.2131,4.107,8.87,1111122 
DISL,ioos:station:DISL:KATA:1,2014-02-05T07:30:00Z,30.2583,-88.2131,4.087,9.02,1111122 
DISL,ioos:station:DISL:KATA:1,2014-02-05T08:00:00Z,30.2583,-88.2131,4.045,8.98,1111122 
DISL,ioos:station:DISL:KATA:1,2014-02-05T08:30:00Z,30.2583,-88.2131,4.013,8.89,1111122 
DISL,ioos:station:DISL:KATA:1,2014-02-05T09:00:00Z,30.2583,-88.2131,3.97,8.72,1111122 
DISL,ioos:station:DISL:KATA:1,2014-02-05T09:30:00Z,30.2583,-88.2131,3.967,8.68,1111122 
DISL,ioos:station:DISL:KATA:1,2014-02-05T10:00:00Z,30.2583,-88.2131,3.975,8.77,1111122 
DISL,ioos:station:DISL:KATA:1,2014-02-05T10:30:00Z,30.2583,-88.2131,3.98,8.68,1111122 
DISL,ioos:station:DISL:KATA:1,2014-02-05T11:00:00Z,30.2583,-88.2131,3.999,8.68,1111122 
DISL,ioos:station:DISL:KATA:1,2014-02-05T11:30:00Z,30.2583,-88.2131,4.005,8.64,1111122 
DISL,ioos:station:DISL:KATA:1,2014-02-05T12:00:00Z,30.2583,-88.2131,3.994,8.6,1111122 
DISL,ioos:station:DISL:KATA:1,2014-02-05T12:30:00Z,30.2583,-88.2131,3.981,8.49,1111122 
DISL,ioos:station:DISL:KATA:1,2014-02-05T13:00:00Z,30.2583,-88.2131,3.946,8.45,1111122 
DISL,ioos:station:DISL:KATA:1,2014-02-05T13:30:00Z,30.2583,-88.2131,3.939,8.38,1111122 
DISL,ioos:station:DISL:KATA:1,2014-02-05T14:00:00Z,30.2583,-88.2131,3.943,8.35,1111122 
DISL,ioos:station:DISL:KATA:1,2014-02-05T14:30:00Z,30.2583,-88.2131,3.942,8.37,1111122 
DISL,ioos:station:DISL:KATA:1,2014-02-05T15:00:00Z,30.2583,-88.2131,3.954,8.45,1111122 
DISL,ioos:station:DISL:KATA:1,2014-02-05T15:30:00Z,30.2583,-88.2131,3.977,8.47,1111122 
DISL,ioos:station:DISL:KATA:1,2014-02-05T16:00:00Z,30.2583,-88.2131,4.1,9.98,1111122 
DISL,ioos:station:DISL:KATA:1,2014-02-05T16:30:00Z,30.2583,-88.2131,4.041,8.47,1111122 
DISL,ioos:station:DISL:KATA:1,2014-02-05T17:00:00Z,30.2583,-88.2131,4.188,10.03,1111122 
DISL,ioos:station:DISL:KATA:1,2014-02-05T17:30:00Z,30.2583,-88.2131,4.135,8.92,1111122 
DISL,ioos:station:DISL:KATA:1,2014-02-05T18:00:00Z,30.2583,-88.2131,4.141,9.33,1111122 
DISL,ioos:station:DISL:KATA:1,2014-02-05T18:30:00Z,30.2583,-88.2131,4.148,9.47,1111122 
DISL,ioos:station:DISL:KATA:1,2014-02-05T19:00:00Z,30.2583,-88.2131,4.141,9.02,1111122 
DISL,ioos:station:DISL:KATA:1,2014-02-05T19:30:00Z,30.2583,-88.2131,4.156,8.77,1111122 
DISL,ioos:station:DISL:KATA:1,2014-02-05T20:00:00Z,30.2583,-88.2131,4.171,9.12,1111122 
DISL,ioos:station:DISL:KATA:1,2014-02-05T20:30:00Z,30.2583,-88.2131,4.16,8.24,1111122 
DISL,ioos:station:DISL:KATA:1,2014-02-05T21:00:00Z,30.2583,-88.2131,4.156,8.53,1111122 
DISL,ioos:station:DISL:KATA:1,2014-02-05T21:30:00Z,30.2583,-88.2131,4.144,8.56,1111122 
DISL,ioos:station:DISL:KATA:1,2014-02-05T22:00:00Z,30.2583,-88.2131,4.131,8.47,1111122 
DISL,ioos:station:DISL:KATA:1,2014-02-05T22:30:00Z,30.2583,-88.2131,4.143,7.85,1111122 
DISL,ioos:station:DISL:KATA:1,2014-02-05T23:00:00Z,30.2583,-88.2131,4.133,7.63,1111122 
DISL,ioos:station:DISL:KATA:1,2014-02-05T23:30:00Z,30.2583,-88.2131,4.122,7.54,1111122 
DISL,ioos:station:DISL:KATA:1,2014-02-06T00:00:00Z,30.2583,-88.2131,4.102,7.2,1111122 
DISL,ioos:station:DISL:KATA:1,2014-02-06T00:30:00Z,30.2583,-88.2131,4.14,8.51,1111122 
DISL,ioos:station:DISL:KATA:1,2014-02-06T01:00:00Z,30.2583,-88.2131,4.009,8.54,1111122 
DISL,ioos:station:DISL:KATA:1,2014-02-06T01:30:00Z,30.2583,-88.2131,3.968,10.11,1111122 
DISL,ioos:station:DISL:KATA:1,2014-02-06T02:00:00Z,30.2583,-88.2131,4.008,11.58,1111122 
DISL,ioos:station:DISL:KATA:1,2014-02-06T02:30:00Z,30.2583,-88.2131,3.874,10.15,1111122 
DISL,ioos:station:DISL:KATA:1,2014-02-06T03:00:00Z,30.2583,-88.2131,3.826,10.12,1111122 
DISL,ioos:station:DISL:KATA:1,2014-02-06T03:30:00Z,30.2583,-88.2131,3.785,10.18,1111122 
DISL,ioos:station:DISL:KATA:1,2014-02-06T04:00:00Z,30.2583,-88.2131,3.788,10.18,1111122 
DISL,ioos:station:DISL:KATA:1,2014-02-06T04:30:00Z,30.2583,-88.2131,3.788,10.15,1111122 
DISL,ioos:station:DISL:KATA:1,2014-02-06T05:00:00Z,30.2583,-88.2131,3.797,10.11,1111122 
DISL,ioos:station:DISL:KATA:1,2014-02-06T05:30:00Z,30.2583,-88.2131,3.817,9.92,1111122 
DISL,ioos:station:DISL:KATA:1,2014-02-06T06:00:00Z,30.2583,-88.2131,3.856,9.85,1111122 
DISL,ioos:station:DISL:KATA:1,2014-02-06T06:30:00Z,30.2583,-88.2131,3.852,9.83,1111122 
DISL,ioos:station:DISL:KATA:1,2014-02-06T07:00:00Z,30.2583,-88.2131,3.861,10.01,1111122 
DISL,ioos:station:DISL:KATA:1,2014-02-06T07:30:00Z,30.2583,-88.2131,3.841,9.97,1111122 
DISL,ioos:station:DISL:KATA:1,2014-02-06T08:00:00Z,30.2583,-88.2131,3.822,10.03,1111122 
DISL,ioos:station:DISL:KATA:1,2014-02-06T08:30:00Z,30.2583,-88.2131,3.824,10.04,1111122 
DISL,ioos:station:DISL:KATA:1,2014-02-06T09:00:00Z,30.2583,-88.2131,3.787,9.89,1111122 
DISL,ioos:station:DISL:KATA:1,2014-02-06T09:30:00Z,30.2583,-88.2131,3.774,9.83,1111122 
DISL,ioos:station:DISL:KATA:1,2014-02-06T10:00:00Z,30.2583,-88.2131,3.767,9.82,1111122 
DISL,ioos:station:DISL:KATA:1,2014-02-06T10:30:00Z,30.2583,-88.2131,3.773,9.74,1111122 
DISL,ioos:station:DISL:KATA:1,2014-02-06T11:00:00Z,30.2583,-88.2131,3.854,11.07,1111122 
DISL,ioos:station:DISL:KATA:1,2014-02-06T11:30:00Z,30.2583,-88.2131,3.813,9.78,1111122 
DISL,ioos:station:DISL:KATA:1,2014-02-06T12:00:00Z,30.2583,-88.2131,3.836,9.8,1111122 
DISL,ioos:station:DISL:KATA:1,2014-02-06T12:30:00Z,30.2583,-88.2131,3.854,9.73,1111122 
DISL,ioos:station:DISL:KATA:1,2014-02-06T13:00:00Z,30.2583,-88.2131,3.875,9.67,1111122 
DISL,ioos:station:DISL:KATA:1,2014-02-06T13:30:00Z,30.2583,-88.2131,3.89,9.6,1111122 
DISL,ioos:station:DISL:KATA:1,2014-02-06T14:00:00Z,30.2583,-88.2131,3.89,9.56,1111122 
DISL,ioos:station:DISL:KATA:1,2014-02-06T14:30:00Z,30.2583,-88.2131,3.896,9.88,1111122 
DISL,ioos:station:DISL:KATA:1,2014-02-06T15:00:00Z,30.2583,-88.2131,3.907,9.95,1111122 
DISL,ioos:station:DISL:KATA:1,2014-02-06T15:30:00Z,30.2583,-88.2131,3.89,9.94,1111122 